User: anonymous   Login
Location: Unspecified
(0.0000°N, 0.0000°E)
Time: 06:52:33
(UTC+00:00)
Language:

CANX 3B (BRITE-ASRA) - Orbit

View from above orbital plane
View from above orbital plane
View from above satellite
View from above satellite

Ground track
Ground track

The orbit data is extracted from the following two-line orbital elements,

1 39091U 13009F   15209.15149943  .00000051  00000-0  33598-4 0  9996
2 39091 098.6016 047.5628 0010304 186.7161 173.3887 14.34900853126535
Epoch (UTC): 28 July 2015 03:38:09
Eccentricity: 0.0010304
inclination: 98.6016°
perigee height: 768 km
apogee height: 783 km
right ascension of ascending node: 47.5628°
argument of perigee: 186.7161°
revolutions per day: 14.34900853
mean anomaly at epoch: 173.3887°
orbit number at epoch: 12653

The dashed part of the orbit path shows where the satellite is in the earth's shadow,  

DLR